Location: Maignaut
(43.8886°N, 0.4051°E)
Time: 19:29:12
(UTC+00:00)

SAR-Lupe-4 - Pass Details

Date: 17 January 2021
Orbit: 480 x 484 km, 98.2° (Epoch: 27 February)

Event Time Altitude Azimuth Distance (km) Brightness Sun altitude
Exits shadow 18:12:30 23° 42° (NE) 1,068 4.8 -14.8°
Maximum altitude 18:14:18 42° 100° (E) 705 3.9 -15.1°
Drops below altitude 10° 18:17:41 10° 172° (S) 1,655 6.3 -15.7°
Sets 18:19:49 0° 179° (S) 2,528 7.4 -16.1°
